Time,TemperatureF,DewpointF,PressureIn,WindDirection,WindDirectionDegrees,WindSpeedMPH,WindSpeedGustMPH,Humidity,HourlyPrecipIn,Conditions,Clouds,dailyrainin,SoftwareType,DateUTC
2013-07-10 00:22:00,81.0,77.0,-100.00,SW,226,6.0,-999.0,87,0.00,,,-99.99,,2013-07-10 05:22:00,
2013-07-10 00:32:00,81.0,77.0,-100.00,SW,226,6.0,-999.0,87,0.00,,,-99.99,,2013-07-10 05:32:00,
2013-07-10 00:42:00,81.0,77.0,-100.00,SW,226,6.0,-999.0,87,0.00,,,-99.99,,2013-07-10 05:42:00,
2013-07-10 01:22:00,80.0,77.0,-100.00,West,270,5.0,-999.0,89,0.00,,,-99.99,,2013-07-10 06:22:00,
2013-07-10 01:32:00,80.0,77.0,-100.00,West,270,5.0,-999.0,89,0.00,,,-99.99,,2013-07-10 06:32:00,
2013-07-10 01:42:00,80.0,77.0,-100.00,West,270,5.0,-999.0,89,0.00,,,-99.99,,2013-07-10 06:42:00,
2013-07-10 02:22:00,81.0,79.0,-100.00,SW,233,8.0,-999.0,94,0.00,,,-99.99,,2013-07-10 07:22:00,
2013-07-10 02:33:00,81.0,79.0,-100.00,SW,233,8.0,-999.0,94,0.00,,,-99.99,,2013-07-10 07:33:00,
2013-07-10 02:43:00,81.0,79.0,-100.00,SW,233,8.0,-999.0,94,0.00,,,-99.99,,2013-07-10 07:43:00,
2013-07-10 03:23:00,78.0,-99.9,-100.00,North,359,2.0,-999.0,104,0.00,,,-99.99,,2013-07-10 08:23:00,
2013-07-10 03:33:00,78.0,-99.9,-100.00,North,359,2.0,-999.0,104,0.00,,,-99.99,,2013-07-10 08:33:00,
2013-07-10 03:43:00,78.0,-99.9,-100.00,North,359,2.0,-999.0,104,0.00,,,-99.99,,2013-07-10 08:43:00,
2013-07-10 04:22:00,77.0,-99.9,-100.00,North,357,2.0,-999.0,116,0.00,,,-99.99,,2013-07-10 09:22:00,
2013-07-10 04:33:00,77.0,-99.9,-100.00,North,357,2.0,-999.0,116,0.00,,,-99.99,,2013-07-10 09:33:00,
2013-07-10 04:43:00,77.0,-99.9,-100.00,North,357,2.0,-999.0,116,0.00,,,-99.99,,2013-07-10 09:43:00,
2013-07-10 04:45:00,-999.0,-99.9,-100.00,NNE,15,2.0,-999.0,-999,-99.99,,,-99.99,,2013-07-10 09:45:00,
2013-07-10 05:23:00,77.0,-99.9,-100.00,NNE,15,2.0,-999.0,117,0.00,,,-99.99,,2013-07-10 10:23:00,
2013-07-10 05:32:00,77.0,-99.9,-100.00,NNE,15,2.0,-999.0,117,0.00,,,-99.99,,2013-07-10 10:32:00,
2013-07-10 06:23:00,77.0,-99.9,-100.00,NW,326,2.0,-999.0,118,0.00,,,-99.99,,2013-07-10 11:23:00,
2013-07-10 06:33:00,77.0,-99.9,-100.00,NW,326,2.0,-999.0,118,0.00,,,-99.99,,2013-07-10 11:33:00,
2013-07-10 06:43:00,77.0,-99.9,-100.00,NW,326,2.0,-999.0,118,0.00,,,-99.99,,2013-07-10 11:43:00,
2013-07-10 07:22:00,78.0,-99.9,-100.00,NW,313,5.0,-999.0,118,0.00,,,-99.99,,2013-07-10 12:22:00,
2013-07-10 07:33:00,78.0,-99.9,-100.00,NW,313,5.0,-999.0,118,0.00,,,-99.99,,2013-07-10 12:33:00,
2013-07-10 07:43:00,78.0,-99.9,-100.00,NW,313,5.0,-999.0,118,0.00,,,-99.99,,2013-07-10 12:43:00,
2013-07-10 08:22:00,80.0,-99.9,-100.00,NW,312,5.0,-999.0,112,0.00,,,-99.99,,2013-07-10 13:22:00,
2013-07-10 08:32:00,80.0,-99.9,-100.00,NW,312,5.0,-999.0,112,0.00,,,-99.99,,2013-07-10 13:32:00,
2013-07-10 08:43:00,80.0,-99.9,-100.00,NW,312,5.0,-999.0,112,0.00,,,-99.99,,2013-07-10 13:43:00,
2013-07-10 09:22:00,81.0,81.0,-100.00,NW,311,7.0,-999.0,100,0.00,,,-99.99,,2013-07-10 14:22:00,
2013-07-10 09:33:00,81.0,81.0,-100.00,NW,311,7.0,-999.0,100,0.00,,,-99.99,,2013-07-10 14:33:00,
2013-07-10 09:43:00,81.0,81.0,-100.00,NW,311,7.0,-999.0,100,0.00,,,-99.99,,2013-07-10 14:43:00,
2013-07-10 10:22:00,83.0,77.0,-100.00,NW,307,6.0,-999.0,81,0.00,,,-99.99,,2013-07-10 15:22:00,
2013-07-10 10:34:00,83.0,77.0,-100.00,NW,307,6.0,-999.0,81,0.00,,,-99.99,,2013-07-10 15:34:00,
2013-07-10 10:42:00,83.0,77.0,-100.00,NW,307,6.0,-999.0,81,0.00,,,-99.99,,2013-07-10 15:42:00,
2013-07-10 11:22:00,86.0,76.0,-100.00,WSW,254,5.0,-999.0,73,0.00,,,-99.99,,2013-07-10 16:22:00,
2013-07-10 11:33:00,86.0,76.0,-100.00,WSW,254,5.0,-999.0,73,0.00,,,-99.99,,2013-07-10 16:33:00,
2013-07-10 11:44:00,86.0,76.0,-100.00,WSW,254,5.0,-999.0,73,0.00,,,-99.99,,2013-07-10 16:44:00,
2013-07-10 12:23:00,85.0,78.0,-100.00,SW,218,8.0,-999.0,80,0.00,,,-99.99,,2013-07-10 17:23:00,
2013-07-10 12:32:00,85.0,78.0,-100.00,SW,218,8.0,-999.0,80,0.00,,,-99.99,,2013-07-10 17:32:00,
2013-07-10 12:43:00,85.0,78.0,-100.00,SW,218,8.0,-999.0,80,0.00,,,-99.99,,2013-07-10 17:43:00,
2013-07-10 13:22:00,85.0,77.0,-100.00,SSW,213,11.0,-999.0,75,0.00,,,-99.99,,2013-07-10 18:22:00,
2013-07-10 13:32:00,85.0,77.0,-100.00,SSW,213,11.0,-999.0,75,0.00,,,-99.99,,2013-07-10 18:32:00,
2013-07-10 13:44:00,85.0,77.0,-100.00,SSW,213,11.0,-999.0,75,0.00,,,-99.99,,2013-07-10 18:44:00,
2013-07-10 14:22:00,86.0,78.0,-100.00,SW,219,13.0,-999.0,78,0.00,,,-99.99,,2013-07-10 19:22:00,
2013-07-10 14:32:00,86.0,78.0,-100.00,SW,219,13.0,-999.0,78,0.00,,,-99.99,,2013-07-10 19:32:00,
2013-07-10 14:42:00,86.0,78.0,-100.00,SW,219,13.0,-999.0,78,0.00,,,-99.99,,2013-07-10 19:42:00,
2013-07-10 15:22:00,84.0,78.0,-100.00,WSW,240,10.0,-999.0,81,0.00,,,-99.99,,2013-07-10 20:22:00,
2013-07-10 15:32:00,84.0,78.0,-100.00,WSW,240,10.0,-999.0,81,0.00,,,-99.99,,2013-07-10 20:32:00,
2013-07-10 15:43:00,84.0,78.0,-100.00,WSW,240,10.0,-999.0,81,0.00,,,-99.99,,2013-07-10 20:43:00,
2013-07-10 16:22:00,83.0,78.0,-100.00,WSW,244,9.0,-999.0,84,0.00,,,-99.99,,2013-07-10 21:22:00,
2013-07-10 16:32:00,83.0,78.0,-100.00,WSW,244,9.0,-999.0,84,0.00,,,-99.99,,2013-07-10 21:32:00,
2013-07-10 16:42:00,83.0,78.0,-100.00,WSW,244,9.0,-999.0,84,0.00,,,-99.99,,2013-07-10 21:42:00,
2013-07-10 17:21:00,84.0,77.0,-100.00,WSW,248,7.0,-999.0,81,0.00,,,-99.99,,2013-07-10 22:21:00,
2013-07-10 17:33:00,84.0,77.0,-100.00,WSW,248,7.0,-999.0,81,0.00,,,-99.99,,2013-07-10 22:33:00,
2013-07-10 17:42:00,84.0,77.0,-100.00,WSW,248,7.0,-999.0,81,0.00,,,-99.99,,2013-07-10 22:42:00,
2013-07-10 18:22:00,82.0,79.0,-100.00,North,11,4.0,-999.0,90,0.00,,,-99.99,,2013-07-10 23:22:00,
2013-07-10 18:32:00,82.0,79.0,-100.00,North,11,4.0,-999.0,90,0.00,,,-99.99,,2013-07-10 23:32:00,
2013-07-10 18:43:00,82.0,79.0,-100.00,North,11,4.0,-999.0,90,0.00,,,-99.99,,2013-07-10 23:43:00,
2013-07-10 19:22:00,81.0,-99.9,-100.00,ENE,61,3.0,-999.0,108,0.00,,,-99.99,,2013-07-11 00:22:00,
2013-07-10 19:32:00,81.0,-99.9,-100.00,ENE,61,3.0,-999.0,108,0.00,,,-99.99,,2013-07-11 00:32:00,
2013-07-10 19:43:00,81.0,-99.9,-100.00,ENE,61,3.0,-999.0,108,0.00,,,-99.99,,2013-07-11 00:43:00,
2013-07-10 20:22:00,80.0,-99.9,-100.00,North,10,3.0,-999.0,117,0.00,,,-99.99,,2013-07-11 01:22:00,
2013-07-10 20:32:00,80.0,-99.9,-100.00,North,10,3.0,-999.0,117,0.00,,,-99.99,,2013-07-11 01:32:00,
2013-07-10 20:43:00,80.0,-99.9,-100.00,North,10,3.0,-999.0,117,0.00,,,-99.99,,2013-07-11 01:43:00,
2013-07-10 21:22:00,79.0,-99.9,-100.00,NW,308,2.0,-999.0,120,0.00,,,-99.99,,2013-07-11 02:22:00,
2013-07-10 21:32:00,79.0,-99.9,-100.00,NW,308,2.0,-999.0,120,0.00,,,-99.99,,2013-07-11 02:32:00,
2013-07-10 21:44:00,79.0,-99.9,-100.00,NW,308,2.0,-999.0,120,0.00,,,-99.99,,2013-07-11 02:44:00,
2013-07-10 22:22:00,78.0,-99.9,-100.00,NE,37,3.0,-999.0,122,0.00,,,-99.99,,2013-07-11 03:22:00,
2013-07-10 22:33:00,78.0,-99.9,-100.00,NE,37,3.0,-999.0,122,0.00,,,-99.99,,2013-07-11 03:33:00,
2013-07-10 22:42:00,78.0,-99.9,-100.00,NE,37,3.0,-999.0,122,0.00,,,-99.99,,2013-07-11 03:42:00,
2013-07-10 23:22:00,79.0,-99.9,-100.00,East,82,1.0,-999.0,121,0.00,,,-99.99,,2013-07-11 04:22:00,
2013-07-10 23:32:00,79.0,-99.9,-100.00,East,82,1.0,-999.0,121,0.00,,,-99.99,,2013-07-11 04:32:00,
2013-07-10 23:43:00,79.0,-99.9,-100.00,East,82,1.0,-999.0,121,0.00,,,-99.99,,2013-07-11 04:43:00,